Flag for Israel Weather past 2 weeks in Tel Aviv, Israel

Now
82 °F

Sunny.


Feels Like: 83 °F
Forecast: 78 / 90 °F
Wind: 2 mph from North

Location: Ben Gurion International Airport

Current Time: Jul 31, 2015 at 8:21:22 AM

Latest Report: Jul 31, 2015 at 7:50 AM


Visibility: 10 mi

Pressure: 29.74 "Hg

Humidity: 48%

Dew point: 61 °F

Location of Tel AvivLocation

Historic Weather in Tel Aviv — Graph

°F

Tel Aviv temperature yesterday

Maximum temperature yesterday: 93 °F (at 3:20 PM)
Minimum temperature yesterday: 73 °F (at 3:50 AM)
Average temperature yesterday: 83 °F

Past Weeks' High & Low Weather Summary

 TemperatureHumidityPressure
High97 °F (Jul 24, 10:50 AM)89% (Jul 18, 12:20 AM)29.80 "Hg (Jul 18, 12:20 AM)
Low72 °F (Jul 24, 5:50 AM)28% (Jul 24, 10:20 AM)29.68 "Hg (Jul 19, 4:20 PM)
Average82 °F64%29.73 "Hg
* Reported Jul 16 7:20 AM — Jul 31 7:20 AM, Tel Aviv, Weather by CustomWeather, © 2015

Note: Actual official high and low records may vary slightly from our data, if they occured in-between our weather recording intervals... More about our weather records

Advertising

Tel Aviv weather history for previous 24 hours

 ConditionsComfort  
Time TempWeatherWind HumidityBarometerVisibility
7:20 AM
Fri, Jul 31
81 °FSunny.3 mph48%29.74 "Hg10 mi
6:50 AM77 °FPassing clouds.3 mph57%29.71 "HgN/A
6:20 AM77 °FPassing clouds.8 mph54%29.71 "HgN/A
5:50 AM77 °FClear.7 mph54%29.71 "Hg10 mi
5:20 AM77 °FClear.5 mph54%29.71 "Hg10 mi
4:50 AM77 °FClear.5 mph57%29.71 "Hg10 mi
4:20 AM77 °FClear.7 mph57%29.71 "Hg10 mi
3:50 AM77 °FClear.6 mph57%29.71 "Hg10 mi
3:20 AM77 °FClear.7 mph61%29.71 "Hg10 mi
2:50 AM77 °FClear.7 mph61%29.71 "Hg10 mi
2:20 AM79 °FClear.3 mph61%29.71 "Hg10 mi
1:50 AM79 °FClear.1 mph61%29.71 "Hg10 mi
1:20 AM79 °FClear.1 mph58%29.71 "Hg10 mi
12:20 AM79 °FClear.1 mph70%29.71 "Hg10 mi
11:50 PM
Thu, Jul 30
81 °FClear.1 mph66%29.71 "Hg10 mi
11:20 PM81 °FClear.2 mph66%29.71 "Hg10 mi
10:50 PM81 °FClear.5 mph66%29.71 "Hg10 mi
10:20 PM82 °FClear.5 mph58%29.71 "Hg10 mi
9:50 PM82 °FClear.3 mph55%29.71 "Hg10 mi
9:20 PM84 °FClear.3 mph55%29.71 "Hg10 mi
8:50 PM84 °FClear.2 mph55%29.71 "Hg10 mi
8:20 PM84 °FSunny.2 mph55%29.71 "Hg10 mi
7:50 PM86 °FSunny.5 mph52%29.71 "Hg10 mi
7:20 PM88 °FSunny.3 mph49%29.68 "Hg10 mi
6:50 PM88 °FPassing clouds.5 mph52%29.68 "HgN/A
6:20 PM88 °FSunny.8 mph52%29.68 "Hg10 mi
5:50 PM90 °FSunny.9 mph49%29.68 "Hg10 mi
5:20 PM91 °FSunny.10 mph44%29.68 "Hg10 mi
4:50 PM91 °FSunny.9 mph41%29.68 "Hg10 mi
4:20 PM91 °FSunny.10 mph38%29.68 "Hg10 mi
3:50 PM91 °FSunny.10 mph36%29.68 "Hg10 mi
3:20 PM93 °FSunny.10 mph34%29.68 "Hg10 mi
2:50 PM91 °FSunny.10 mph41%29.71 "Hg10 mi
2:20 PM91 °FPassing clouds.10 mph44%29.71 "HgN/A
1:50 PM90 °FPassing clouds.9 mph43%29.71 "HgN/A
1:20 PM90 °FPassing clouds.10 mph43%29.71 "HgN/A
12:50 PM91 °FSunny.10 mph38%29.71 "Hg10 mi
12:20 PM90 °FPassing clouds.10 mph43%29.71 "HgN/A
11:50 AM90 °FSunny.8 mph52%29.71 "Hg10 mi
11:20 AM90 °FSunny.5 mph46%29.74 "Hg10 mi
10:50 AM90 °FSunny.3 mph46%29.74 "Hg10 mi
10:20 AM88 °FSunny.1 mph49%29.74 "Hg10 mi
9:50 AM86 °FSunny.2 mph52%29.74 "Hg10 mi
9:20 AM84 °FSunny.2 mph58%29.74 "Hg10 mi
8:50 AM81 °FSunny.2 mph70%29.74 "Hg10 mi
8:20 AM81 °FSunny.2 mph66%29.74 "Hg10 mi
Weather by CustomWeather, © 2015

See weather overviewHow to use our weather pages